This is the latest recevied weather packets stored in our database for station/object KA3WVU. If no packets are shown the sender has not sent any weather packets the latest 10 day(s).
| Time | Temp. | Humidity | Pressure | Rain* | Wind** | Luminosity | Snow |
|---|---|---|---|---|---|---|---|
| 1777830692 | 10° C | 46% | 1013.6 hPa | 0 mm | - | 156 W/m² | - |
| 1777830388 | 10° C | 46% | 1013.8 hPa | 0 mm | - | 261 W/m² | - |
| 1777830086 | 10° C | 41% | 1013.5 hPa | 0 mm | - | 155 W/m² | - |
| 1777829780 | 10° C | 44% | 1013.8 hPa | 0 mm | - | 184 W/m² | - |
| 1777829477 | 9.44° C | 44% | 1013.9 hPa | 0 mm | - | 730 W/m² | - |
| 1777829174 | 8.89° C | 45% | 1014 hPa | 0 mm | - | 171 W/m² | - |
| 1777828872 | 10° C | 44% | 1013.8 hPa | 0 mm | - | 215 W/m² | - |
| 1777828563 | 10° C | 45% | 1013.8 hPa | 0 mm | - | 247 W/m² | - |
| 1777828260 | 10° C | 43% | 1013.8 hPa | 0 mm | - | 678 W/m² | - |
| 1777827956 | 8.33° C | 45% | 1014 hPa | 0 mm | - | 862 W/m² | - |
| 1777827653 | 9.44° C | 45% | 1014 hPa | 0 mm | - | 155 W/m² | - |
| 1777827351 | 9.44° C | 47% | 1013.9 hPa | 0 mm | - | 664 W/m² | - |
| 1777827047 | 9.44° C | 44% | 1014.1 hPa | 0 mm | - | 211 W/m² | - |
| 1777826744 | 10° C | 42% | 1014.1 hPa | 0 mm | - | 729 W/m² | - |
| 1777826441 | 9.44° C | 46% | 1013.8 hPa | 0 mm | - | 476 W/m² | - |
| 1777826138 | 8.89° C | 49% | 1014 hPa | 0 mm | - | 188 W/m² | - |
| 1777825835 | 9.44° C | 45% | 1014 hPa | 0 mm | - | 254 W/m² | - |
| 1777825532 | 8.89° C | 48% | 1014.2 hPa | 0 mm | - | 216 W/m² | - |
| 1777825230 | 8.33° C | 47% | 1014.2 hPa | 0 mm | - | 281 W/m² | - |
| 1777824926 | 8.33° C | 49% | 1014.1 hPa | 0 mm | - | 324 W/m² | - |
| 1777824622 | 8.89° C | 45% | 1014.2 hPa | 0 mm | - | 138 W/m² | - |
| 1777824320 | 8.33° C | 48% | 1014.6 hPa | 0 mm | - | 272 W/m² | - |
| 1777824015 | 8.89° C | 49% | 1014.1 hPa | 0 mm | - | 118 W/m² | - |
| 1777823712 | 7.78° C | 49% | 1014.4 hPa | 0 mm | - | 429 W/m² | - |
| 1777823409 | 7.78° C | 52% | 1014.2 hPa | 0 mm | - | 466 W/m² | - |
* Rain latest hour (hover to see other rain measurements)
** Current wind speed in m/s (hover to see current wind gust speed)